Location: Observatory
(52.1446°N, 0.4624°W)
Time: 16:46:03
(UTC+01:00)

ISS - Pass Details

Date: 26 May 2020
Orbit: 417 x 420 km, 51.6° (Epoch: 26 May)

Event Time Altitude Azimuth Distance (km) Brightness Sun altitude
Rises 23:42:53 0° 281° (WNW) 2,369 0.5 -14.7°
Reaches altitude 10° 23:45:18 10° 266° (W) 1,502 -0.8 -14.8°
Maximum altitude 23:47:56 21° 214° (SW) 987 -2.2 -14.9°
Enters shadow 23:48:01 21° 212° (SSW) 988 -2.3 -14.9°
